Tracking 19489 objects as of 22-Jan-2019
HD Live streaming from Space Station
objects crossing your sky now

LEMUR 2 NATALIEMURRAY

Track LEMUR 2 NATALIEMURRAY now!
10-day predictions
LEMUR 2 NATALIEMURRAY is classified as:


NORAD ID: 43887
Int'l Code: 2018-111M
Perigee: 576.0 km
Apogee: 592.9 km
Inclination: 97.7 °
Period: 96.2 minutes
Semi major axis: 6955 km
RCS: Unknown
Launch date: December 27, 2018
Source: United States (US)
Launch site: VOSTOCHNY COSMODROME (VOSTO)
aabbcc
Your satellite tracking list
Your tracking list is empty




NASA's NSSDC Master Catalog

Two Line Element Set (TLE):
1 43887U 18111M   19021.75305334 +.00000949 +00000-0 +88277-4 0  9993
2 43887 097.7291 291.8721 0012158 149.9124 210.2798 14.96636652003824
Source of the keplerian elements: AFSPC